GFSFLT2_250_spd_090.txt.gz
Wind_Speed
66 65 64 64 63 60 61 64 67 69 70 68 61 58 56 42 35 33 37 34 33 32 25 23 19 14 31 30 29 30 30 32
70 69 66 64 63 63 67 72 72 73 70 66 59 57 60 46 37 38 44 35 36 34 32 29 26 21 30 32 30 29 30 34
69 72 70 65 64 67 71 74 75 73 60 53 60 61 60 47 41 43 49 40 41 41 35 34 34 32 29 27 11 23 24 28
70 71 70 68 71 71 71 72 73 67 62 64 64 63 58 51 42 47 57 44 45 45 36 36 38 41 41 21 22 20 24 26
73 72 68 70 70 67 68 69 70 68 71 69 60 56 53 48 44 49 61 53 48 44 38 35 37 39 34 34 25 24 28 23
72 70 67 64 65 64 64 67 74 77 70 59 56 48 46 44 45 53 61 58 51 48 41 42 41 38 36 26 20 31 26 14
70 61 62 62 60 63 65 73 76 70 59 50 43 42 42 41 45 51 57 61 48 52 43 45 45 44 44 29 31 23 16 12
61 61 61 61 64 64 68 75 81 60 47 41 37 37 40 41 42 47 47 55 48 56 45 42 47 46 41 36 29 19 17 19
51 64 63 61 59 67 74 76 73 56 41 36 32 37 38 37 36 42 42 46 48 53 49 47 45 44 41 38 32 23 22 20
54 62 62 64 68 69 72 68 63 46 34 33 33 39 40 41 38 38 41 37 46 47 45 46 45 47 35 35 35 28 30 23
56 57 63 61 66 68 73 70 54 39 33 32 33 36 38 38 43 42 39 40 46 38 48 46 44 40 31 39 35 32 31 25
62 62 67 71 68 67 66 62 41 34 29 28 28 25 32 37 41 43 43 44 45 44 50 48 48 47 33 40 37 33 29 28
68 69 71 64 64 68 64 51 35 29 28 26 25 28 34 39 42 44 47 51 49 50 55 51 49 47 42 42 40 40 34 28
60 62 64 64 70 69 62 38 30 30 28 26 26 32 33 39 41 44 49 50 49 51 55 56 52 54 48 47 48 49 44 42
61 67 67 69 70 62 50 32 33 32 28 26 29 32 31 34 38 42 47 50 54 53 52 55 57 57 47 50 52 52 52 49
70 66 65 67 66 52 40 32 37 31 30 29 33 33 34 31 34 43 45 49 55 57 55 57 59 60 57 50 54 57 56 55
70 68 68 68 59 46 36 39 36 32 31 32 31 30 33 29 30 36 42 44 55 58 57 60 63 62 61 58 52 55 53 53
70 70 75 73 67 42 40 43 35 32 28 29 24 27 30 24 26 31 40 41 41 54 57 58 57 58 61 59 55 54 58 56
68 76 77 76 63 42 46 42 34 30 28 24 22 24 28 27 26 33 41 41 37 37 42 51 53 53 54 50 56 59 57 53
76 81 76 76 53 47 50 41 36 30 28 21 23 21 26 24 26 29 35 38 43 38 40 41 43 45 47 47 48 45 45 51

GFSFLT2_250_spd_093.txt.gz
Wind_Speed
59 58 62 58 53 55 56 58 60 62 60 61 61 63 65 68 63 50 42 40 41 42 44 41 36 28 24 18 22 22 21 19
61 61 64 59 54 55 56 60 63 64 62 64 65 68 68 66 55 48 50 41 42 41 45 46 42 29 28 24 19 18 18 22
60 59 59 55 54 57 58 63 65 66 66 68 66 67 66 64 60 58 55 45 43 44 46 47 44 35 29 29 24 23 15 19
58 54 55 54 55 58 62 64 67 67 67 65 64 68 70 67 69 65 60 53 45 46 45 44 46 39 31 33 30 24 22 20
63 58 59 63 63 63 64 67 65 65 62 62 65 67 68 74 66 57 55 51 46 46 48 48 41 41 37 32 31 32 32 24
62 59 64 63 60 63 66 65 62 58 65 66 62 70 71 63 53 46 47 46 45 46 53 49 42 45 40 33 31 28 28 25
57 58 61 62 61 66 65 62 56 61 60 63 66 71 62 54 35 31 38 43 44 44 53 48 42 41 42 35 34 32 26 28
51 58 60 55 51 54 50 55 56 58 64 68 70 74 56 45 31 32 34 39 38 42 45 45 45 40 39 36 35 31 30 28
32 47 44 43 45 49 49 54 59 59 62 68 76 61 49 39 30 33 27 30 37 40 39 41 46 46 40 40 37 33 33 30
34 42 51 46 48 49 52 57 57 63 66 73 66 52 39 33 38 40 35 35 36 38 38 44 46 50 48 41 41 35 33 30
38 42 47 53 44 52 53 58 63 67 70 72 63 42 35 31 38 43 38 37 39 39 38 43 49 47 49 42 40 38 37 33
43 44 49 55 42 50 59 65 61 61 68 70 52 37 32 31 37 43 40 38 38 38 38 42 48 47 47 45 39 36 37 39
39 48 58 58 51 58 60 53 59 63 67 62 42 30 27 32 41 46 41 43 39 40 41 46 51 49 44 42 40 36 42 37
41 46 55 61 53 57 53 56 62 64 60 52 35 28 28 31 34 42 41 40 42 40 44 46 52 52 48 46 36 40 44 42
33 45 54 55 53 57 57 60 61 57 57 42 32 32 30 29 29 33 37 39 43 42 45 50 52 55 53 50 43 41 46 45
42 46 55 60 62 59 57 59 58 61 53 37 35 32 29 28 30 33 35 40 46 48 50 51 52 58 53 53 48 47 48 50
49 47 48 55 57 61 57 58 62 60 51 38 37 32 33 30 31 34 34 42 46 47 51 52 50 62 62 55 53 51 50 50
48 56 60 60 61 58 60 61 62 63 45 42 38 34 32 32 34 34 35 36 42 47 48 51 55 59 63 64 59 54 51 53
43 47 53 58 60 59 61 66 66 50 45 43 38 34 31 31 30 33 33 34 36 40 43 51 57 57 62 63 61 58 53 54
51 55 54 59 60 58 60 61 59 44 39 43 36 32 30 25 27 31 31 28 33 31 35 45 59 51 56 59 56 58 56 54

GFSFLT2_250_spd_099.txt.gz
Wind_Speed
56 56 54 54 56 58 59 57 51 51 50 50 49 48 49 49 48 47 50 48 48 50 50 49 49 48 44 36 32 35 38 35
56 58 58 59 59 58 60 59 51 48 50 51 49 47 48 51 49 50 51 50 50 50 50 50 53 52 48 41 33 35 37 39
60 60 62 59 58 60 61 61 56 51 59 54 50 50 49 51 52 53 51 52 51 49 50 48 49 50 48 45 35 35 36 32
65 63 66 67 65 64 61 60 61 60 54 52 50 49 50 53 52 52 52 53 51 49 50 57 60 56 52 46 34 37 36 34
67 66 67 68 65 65 62 61 63 59 49 51 52 53 54 54 50 52 49 47 50 51 58 62 59 50 47 45 38 39 34 34
68 67 67 66 63 59 57 60 60 64 55 55 55 52 53 52 51 46 47 49 52 57 60 60 46 39 34 41 41 41 37 33
70 72 70 68 65 62 61 61 63 63 59 58 58 57 55 49 46 45 47 51 56 60 59 46 39 34 30 35 36 41 40 33
69 71 76 70 65 62 63 65 64 64 60 56 51 48 48 47 42 42 48 54 58 59 42 35 34 29 32 32 37 38 38 35
72 69 71 76 72 64 60 64 64 60 56 45 42 42 42 45 41 45 49 55 60 49 35 30 32 27 31 32 39 38 37 37
70 72 69 66 62 65 63 59 62 54 39 39 39 42 45 41 42 46 50 58 58 42 34 39 30 26 32 36 35 40 38 39
73 74 77 74 72 64 59 57 57 49 42 45 39 41 37 40 44 49 51 56 55 34 37 42 34 33 36 40 42 43 40 41
82 75 75 79 78 70 58 56 55 50 49 40 37 38 35 41 49 51 55 56 43 30 42 45 38 36 45 46 48 46 42 43
76 79 78 76 78 71 60 55 56 53 51 41 39 43 38 43 48 52 56 57 35 32 47 47 38 35 48 46 48 51 47 45
71 73 80 78 76 76 72 59 56 54 50 42 46 40 38 41 48 49 54 50 31 35 45 43 34 39 48 48 51 54 50 46
69 69 72 76 84 80 79 64 57 55 49 46 49 43 41 41 46 48 50 39 28 37 38 38 34 37 46 49 52 60 54 48
63 62 62 66 68 68 63 57 56 57 50 50 45 45 43 44 46 49 50 32 28 36 41 42 40 38 39 43 51 60 54 52
57 57 56 56 54 56 56 56 56 57 49 44 44 42 44 43 48 46 42 31 29 35 41 42 46 44 44 46 48 61 59 55
46 46 49 52 55 54 51 56 55 53 53 50 45 41 44 49 50 46 42 34 35 35 38 41 44 49 44 46 51 61 63 56
38 41 46 46 54 56 56 57 57 57 50 46 45 48 45 46 44 48 35 36 40 39 36 42 46 51 47 48 50 54 59 61
33 37 42 46 49 56 54 49 49 46 41 43 45 40 38 44 46 42 39 37 42 43 40 39 41 47 50 49 52 54 51 57

GFSFLT2_250_spd_102.txt.gz
Wind_Speed
47 50 51 52 55 56 58 59 59 58 54 56 55 55 54 56 55 55 55 46 46 47 47 49 48 48 45 44 43 45 41 30
50 48 49 52 47 51 57 63 62 59 57 56 55 56 59 58 56 53 48 47 50 49 50 48 49 48 47 46 45 44 36 33
58 57 55 56 59 59 55 59 61 64 62 62 57 58 61 60 55 53 51 55 55 52 50 49 48 43 44 48 48 47 46 37
53 54 59 63 65 63 60 57 60 65 64 61 62 63 65 60 57 57 58 55 54 51 45 45 44 46 52 57 56 51 45 35
60 59 56 63 66 67 65 62 60 61 61 63 61 62 60 60 58 54 55 55 49 48 44 42 45 53 58 56 49 41 34 32
57 60 64 62 63 64 65 66 63 62 58 56 57 55 56 56 55 56 54 53 53 41 41 43 48 56 57 48 36 28 30 27
59 57 60 63 67 64 64 65 63 61 59 58 56 54 55 56 56 53 51 46 41 40 41 44 53 56 45 33 34 27 34 31
58 58 60 65 66 69 65 64 62 63 60 59 56 54 55 52 54 51 43 39 39 40 39 46 52 51 42 30 29 31 38 40
59 62 61 64 69 70 69 63 64 62 63 60 55 53 52 50 45 39 38 37 39 39 42 49 51 48 37 28 30 34 38 41
67 66 64 61 66 72 68 67 62 61 59 65 61 54 50 44 40 40 37 38 40 42 44 49 51 41 36 28 33 33 40 37
71 68 62 60 61 70 68 64 61 60 52 54 60 54 47 46 41 39 32 35 39 45 48 51 48 37 37 35 38 39 36 34
74 67 62 60 62 66 68 67 63 65 61 55 53 51 47 47 44 37 36 38 38 46 48 52 40 33 35 35 43 47 40 41
78 70 65 65 62 68 70 66 67 64 64 60 53 51 48 45 43 35 38 35 40 44 44 46 33 34 33 39 42 47 43 41
73 66 65 64 61 65 72 73 71 65 63 62 54 52 51 50 41 34 37 37 41 43 44 41 30 34 35 40 39 46 48 52
74 69 63 61 61 65 69 73 73 70 63 59 60 54 53 56 51 44 40 41 38 41 39 33 30 38 30 38 45 41 54 52
68 66 63 63 63 63 64 68 72 71 70 66 61 51 53 53 48 41 39 41 42 42 41 29 35 36 32 36 48 50 54 51
66 66 63 66 63 63 64 67 68 70 71 61 54 54 58 54 50 36 38 41 42 41 36 30 36 36 37 34 45 54 52 51
64 60 59 61 59 58 57 58 59 62 62 59 59 54 55 49 48 35 34 40 41 40 40 31 37 42 37 38 42 53 56 52
51 47 49 49 51 52 52 52 49 54 53 49 52 52 53 53 46 39 37 42 43 43 36 34 36 40 40 40 47 46 49 53
39 40 40 40 44 46 48 48 46 47 46 49 50 53 49 45 42 37 34 39 43 41 38 37 39 39 38 41 42 47 52 52

GFSFLT2_250_spd_105.txt.gz
Wind_Speed
48 48 44 44 44 44 43 42 40 42 43 44 50 52 53 57 59 56 55 55 54 54 51 45 47 49 51 52 52 48 44 40
51 51 53 52 50 47 47 47 43 46 46 44 46 47 52 55 58 58 58 58 55 55 53 52 49 51 53 54 52 52 46 41
54 57 56 56 54 55 55 51 53 52 51 47 46 47 50 51 57 60 60 56 55 56 54 55 53 53 54 50 46 43 41 44
55 56 56 57 58 55 56 54 55 56 56 56 52 50 50 51 55 57 56 56 58 53 52 52 49 50 48 50 51 50 49 51
54 56 59 61 60 59 56 57 56 57 57 56 55 49 46 50 50 49 50 50 46 45 47 51 50 50 51 47 47 51 50 48
55 57 58 58 62 60 56 54 57 57 55 52 51 51 46 45 46 44 43 43 44 44 47 48 47 44 43 46 43 47 49 37
61 63 56 59 56 55 56 55 57 56 55 54 51 49 48 45 47 47 45 43 40 43 44 44 43 41 43 47 48 48 37 27
67 66 64 51 62 56 55 51 60 61 61 56 53 48 47 46 48 46 42 38 37 38 42 38 38 41 43 46 50 44 31 26
68 65 64 63 56 57 59 61 60 62 61 61 56 50 49 47 51 48 41 39 37 37 36 35 37 41 43 49 49 37 29 37
70 67 66 63 60 59 65 64 62 62 60 60 58 51 53 49 49 52 52 44 38 33 36 38 37 41 45 48 47 28 30 44
74 74 71 69 67 66 67 70 61 61 60 57 59 55 53 46 43 46 47 43 40 32 36 35 37 40 45 47 32 24 28 42
80 78 74 75 75 73 69 70 65 63 58 57 58 57 55 52 43 43 42 40 41 34 36 39 41 39 45 42 24 27 32 39
85 86 85 82 81 74 68 72 74 64 62 61 58 58 54 54 48 43 43 39 38 33 34 38 38 40 42 32 24 35 38 40
90 88 87 85 80 74 72 72 71 67 65 64 63 57 55 53 51 47 47 42 39 33 34 39 39 41 40 24 28 36 46 52
89 86 85 82 79 78 72 66 62 64 66 65 66 62 58 54 52 46 47 46 46 45 35 41 42 40 34 20 32 38 43 55
88 86 86 83 80 75 65 59 58 59 66 68 68 65 59 53 50 48 47 47 45 47 43 42 36 34 31 22 31 42 44 51
80 78 79 79 73 66 60 57 56 63 65 67 65 61 61 59 48 45 44 49 43 43 42 35 32 31 30 24 31 40 46 50
79 77 74 70 64 60 59 59 58 60 63 63 63 60 60 60 54 45 44 47 46 48 37 33 37 34 30 33 35 37 39 57
64 64 63 61 61 60 58 58 59 60 62 62 60 55 56 59 51 51 49 46 39 38 30 38 36 35 28 36 40 37 35 46
52 54 55 53 53 53 52 50 50 54 57 53 57 52 56 49 51 51 47 42 38 32 33 39 37 38 32 36 41 44 42 43

GFSFLT2_250_spd_108.txt.gz
Wind_Speed
47 48 49 49 48 47 46 44 45 44 42 37 38 35 37 42 42 41 45 48 49 53 55 55 56 55 54 50 48 47 47 50
42 42 46 46 46 47 47 48 47 47 47 46 43 42 46 43 43 42 42 41 45 49 53 56 55 55 56 53 50 51 49 50
44 48 48 48 47 48 46 44 47 48 46 46 49 50 51 49 48 46 45 44 42 43 48 53 55 55 53 51 49 49 46 44
48 48 49 50 52 51 51 52 47 45 49 50 49 52 55 56 54 51 47 48 47 45 44 47 48 49 46 46 45 46 46 45
53 52 52 54 53 54 54 56 55 54 48 47 48 50 54 56 56 51 48 47 46 42 38 38 41 42 43 47 44 44 40 40
58 57 55 56 56 60 55 57 57 54 50 52 49 50 50 51 50 44 44 42 39 36 38 40 42 44 43 47 42 39 40 42
60 58 61 63 59 60 60 56 52 48 52 50 48 52 53 47 47 40 40 40 39 37 36 37 38 40 41 43 38 39 41 45
62 63 65 64 62 60 59 58 54 54 61 59 55 54 54 52 45 41 39 37 39 34 35 35 35 35 35 36 35 38 44 43
66 68 65 65 63 65 64 63 62 62 57 57 57 57 53 54 47 41 40 40 38 38 35 36 37 35 33 36 37 42 44 43
70 68 68 67 67 68 67 66 67 65 62 60 58 59 56 53 47 42 40 40 38 38 41 43 40 35 34 38 41 41 42 42
74 74 73 72 73 73 75 74 70 68 63 64 61 63 59 54 49 43 42 40 35 37 37 38 37 35 37 38 41 42 41 43
80 79 78 77 78 78 77 75 74 73 69 68 68 68 61 56 53 44 44 43 43 37 37 36 36 41 40 40 39 37 39 32
82 83 82 82 83 81 80 79 78 77 74 74 72 70 67 61 54 49 44 44 45 38 37 36 38 40 39 39 41 38 39 29
85 87 89 89 87 84 83 81 81 80 77 75 71 69 70 63 56 55 48 46 47 47 39 38 37 38 41 42 45 36 35 31
91 93 93 92 91 89 89 89 87 82 77 74 70 73 72 66 61 59 52 48 45 47 44 40 39 40 41 47 45 33 31 36
93 92 93 94 95 94 92 90 86 82 77 80 76 75 74 68 64 61 57 51 45 44 43 40 40 43 45 47 39 29 31 41
93 95 95 96 94 91 89 87 83 77 76 75 76 74 68 66 61 62 62 53 47 45 45 41 41 43 41 41 34 31 31 40
95 94 94 94 92 90 88 83 78 77 73 72 68 66 63 60 59 60 64 56 48 47 44 39 39 41 40 35 34 34 27 42
92 88 87 90 89 85 84 84 78 73 65 62 62 60 59 62 58 58 62 52 49 44 38 36 39 41 39 35 34 33 29 35
89 88 84 81 72 66 64 66 61 56 55 56 56 57 57 61 55 55 55 57 46 43 40 38 38 36 37 35 35 38 33 35

GFSFLT2_250_spd_111.txt.gz
Wind_Speed
44 41 39 38 37 37 37 35 36 39 42 44 45 44 45 43 41 38 39 40 38 40 38 35 40 44 46 47 47 50 48 47
47 44 45 42 40 35 37 38 35 37 37 39 41 47 48 48 48 46 48 46 45 40 40 38 38 40 42 45 44 45 46 44
52 51 50 45 44 44 44 42 40 40 39 41 37 38 44 49 47 49 51 53 48 46 45 41 41 41 40 38 38 38 41 40
55 55 53 50 50 50 46 46 46 44 41 41 41 41 41 43 46 48 50 55 56 55 50 46 46 41 40 36 33 32 36 36
58 55 50 54 53 50 50 53 52 50 47 44 46 43 43 37 39 44 49 50 53 56 54 49 45 40 36 31 33 33 38 36
58 56 52 58 55 51 54 56 58 55 54 50 47 46 42 46 52 54 53 48 47 48 45 44 40 36 33 34 34 34 35 34
58 57 59 56 54 56 57 58 60 58 57 56 52 49 48 49 53 52 51 46 44 44 39 39 35 33 30 33 33 33 35 33
60 61 61 57 62 62 59 58 60 61 61 59 58 54 54 52 53 51 49 49 46 44 40 37 37 30 29 29 32 32 31 30
63 61 61 64 67 64 62 64 61 64 64 63 62 60 58 58 55 53 54 50 45 43 43 33 35 34 29 28 30 31 30 32
67 66 66 67 66 68 70 66 66 68 67 66 65 65 63 60 60 58 59 53 46 41 41 33 33 33 33 34 31 30 29 33
72 73 72 70 70 72 73 72 71 72 70 69 68 68 67 65 64 62 59 60 48 42 41 33 31 31 28 30 32 35 33 31
74 73 73 74 74 76 77 74 73 73 73 72 71 71 71 70 67 66 64 61 54 43 44 36 37 32 30 33 35 37 36 33
77 76 76 76 77 78 78 78 76 76 76 77 76 73 72 69 69 69 68 62 58 47 47 42 42 32 35 37 37 41 42 36
80 79 80 80 81 80 80 81 81 82 82 83 79 77 77 77 75 78 73 67 59 52 48 45 44 38 35 35 38 40 40 38
82 83 83 84 84 85 85 87 86 84 86 84 82 82 81 83 81 76 73 67 61 53 52 49 45 44 38 35 39 43 43 40
84 84 85 86 87 89 90 90 90 90 88 88 87 88 88 86 83 75 71 68 64 53 54 54 48 42 42 40 41 42 45 43
86 87 88 91 91 91 92 93 94 93 93 92 91 90 87 85 78 73 72 71 69 60 57 56 47 46 47 42 42 44 45 39
90 92 93 94 93 94 92 92 89 89 92 92 90 89 85 86 80 76 74 71 70 63 59 58 47 47 46 41 43 45 41 35
93 94 96 95 94 94 93 92 94 92 92 89 86 84 82 81 78 75 73 70 72 63 58 55 44 49 48 40 39 42 39 36
94 94 94 94 93 92 91 93 91 88 85 84 81 79 78 85 85 83 76 70 67 57 57 57 47 54 47 41 39 39 37 36

GFSFLT2_250_spd_114.txt.gz
Wind_Speed
48 48 42 43 41 40 38 35 33 33 31 29 32 32 35 36 34 38 40 40 41 39 43 41 42 40 37 40 39 33 26 22
48 46 45 46 45 42 39 39 39 37 32 31 31 33 33 37 36 40 41 40 39 43 46 46 44 41 39 38 37 34 28 27
46 48 51 48 49 46 45 42 44 41 39 38 35 34 36 38 38 40 39 41 42 43 45 46 47 46 44 42 38 35 30 30
49 52 53 51 54 48 46 43 47 50 45 44 39 40 38 39 40 40 36 34 36 39 44 45 45 46 46 45 43 38 35 32
53 55 52 54 53 52 51 48 53 48 51 51 48 42 43 41 42 41 41 41 37 39 39 44 43 43 44 43 39 35 35 31
56 57 55 53 54 56 55 51 56 51 54 56 52 49 43 44 43 46 45 46 46 44 43 40 39 39 41 40 36 31 30 30
54 50 61 64 59 57 57 56 56 55 59 58 55 54 50 47 47 47 48 48 49 48 45 43 42 39 41 39 34 33 29 29
58 60 61 58 67 63 62 58 56 58 62 59 57 57 55 55 52 49 50 51 50 49 48 47 47 40 39 38 37 31 31 32
59 61 60 57 62 65 64 63 59 60 63 61 62 62 60 61 58 55 53 50 51 51 50 52 50 44 37 38 37 35 31 28
63 66 64 61 62 66 67 64 63 63 64 65 66 66 66 65 62 60 58 55 52 54 52 53 52 48 37 37 40 37 34 30
63 67 70 71 72 72 71 70 68 70 67 67 67 70 70 69 70 67 61 60 56 55 57 54 52 53 41 38 36 38 36 33
67 67 71 73 75 76 76 77 76 71 68 69 68 72 71 72 69 70 67 63 64 59 61 56 57 56 46 40 36 36 33 34
74 72 71 73 76 77 75 76 75 73 70 71 71 72 75 74 74 70 73 71 69 64 60 61 62 60 46 45 40 38 34 35
77 74 75 75 75 76 77 77 76 74 71 70 73 73 74 76 78 76 75 76 71 66 62 68 67 62 46 45 44 40 33 34
81 80 79 79 78 77 77 76 76 76 77 77 77 78 77 74 81 80 76 74 74 72 70 71 72 60 47 46 48 45 38 33
83 83 82 81 81 79 78 78 76 78 78 79 80 82 82 77 79 85 82 81 78 77 75 72 69 61 47 49 53 47 43 37
84 84 86 84 83 82 82 81 81 80 82 82 83 84 86 84 83 84 88 89 83 79 77 74 71 66 49 51 54 51 48 43
86 87 87 86 86 87 87 87 87 87 87 88 88 89 86 84 82 84 89 90 85 83 78 74 69 64 49 50 55 54 52 46
85 89 90 90 91 91 92 89 90 90 90 90 91 91 87 85 82 81 87 90 87 82 77 71 68 63 54 51 54 54 55 45
89 90 92 93 93 92 93 92 91 91 92 94 91 91 87 84 84 76 67 92 90 80 71 69 63 59 44 47 52 50 50 45

GFSFLT2_250_spd_117.txt.gz
Wind_Speed
46 48 46 39 39 39 36 37 35 33 34 33 30 32 33 32 30 32 32 33 33 33 34 39 38 38 39 39 37 37 30 25
44 45 47 43 41 39 38 39 39 37 38 36 34 38 36 34 35 33 33 35 34 33 31 32 35 35 37 40 42 39 32 27
47 46 48 45 39 40 41 43 42 38 41 38 37 40 40 40 38 36 36 37 35 33 31 27 31 36 38 37 38 40 38 29
47 50 44 45 41 40 42 44 46 47 44 45 42 44 41 42 43 40 37 37 37 37 35 33 31 31 31 36 36 33 36 39
49 51 52 46 42 48 44 44 44 46 49 47 47 47 45 47 45 44 37 41 40 39 39 37 37 35 30 32 33 31 31 35
52 50 46 54 54 50 47 50 53 54 54 51 51 49 49 50 48 42 41 42 43 42 43 42 38 37 36 32 33 35 31 32
50 54 57 56 57 51 56 50 48 51 52 56 57 49 51 50 49 48 47 45 45 46 46 44 42 40 39 38 34 36 32 35
48 52 61 61 57 55 52 56 58 56 50 53 55 57 55 54 52 52 50 50 49 46 49 49 49 46 43 38 36 35 35 34
55 55 55 61 59 53 50 37 42 46 46 47 52 57 62 58 56 56 56 53 52 49 50 54 54 52 48 45 37 38 36 35
63 62 60 60 57 52 52 39 46 56 54 61 71 71 69 65 62 62 60 57 52 50 51 54 54 53 52 49 41 38 36 37
68 63 65 65 60 58 54 59 68 72 68 70 68 73 73 71 67 66 62 57 55 55 55 59 59 56 56 54 49 40 38 42
69 67 64 68 68 62 63 65 71 72 71 67 71 76 75 72 74 70 65 60 59 61 61 62 60 60 58 58 55 43 44 43
73 64 69 74 71 70 69 71 73 74 74 73 76 74 68 71 71 69 64 60 68 63 62 64 63 61 60 53 56 53 47 43
82 76 71 74 75 74 74 75 76 76 77 78 78 77 74 71 69 62 62 58 54 64 60 62 66 66 65 59 59 60 52 42
84 82 77 73 75 79 78 78 80 81 79 77 78 75 74 76 74 70 67 62 45 64 61 68 65 66 67 67 64 63 55 46
86 83 80 78 78 78 81 81 80 81 82 81 79 79 77 77 72 70 70 66 64 55 57 78 75 76 72 72 71 67 62 49
88 83 84 83 81 82 80 83 85 83 82 81 82 81 79 78 75 74 72 72 67 68 73 77 80 76 72 73 71 68 66 53
90 89 87 85 85 85 84 83 87 87 86 83 83 83 81 80 82 79 76 72 71 73 75 79 81 77 77 69 72 69 65 57
86 89 87 85 85 87 86 85 86 87 88 87 85 85 85 85 84 84 81 77 77 74 72 75 75 77 76 74 71 64 62 51
82 85 86 86 86 88 88 87 85 85 85 86 88 88 88 89 87 85 84 81 79 79 71 72 78 76 72 70 60 55 54 48

GFSFLT2_250_spd_120.txt.gz
Wind_Speed
52 48 46 43 39 40 31 33 34 32 34 33 32 32 33 30 30 30 30 31 33 33 34 34 34 34 36 37 34 36 36 36
53 52 48 47 43 41 38 35 35 33 35 36 35 33 36 35 34 36 36 32 33 34 33 36 36 33 33 32 34 35 36 38
52 55 52 51 47 44 41 38 30 32 35 39 38 38 39 38 38 39 39 39 37 34 35 36 33 33 34 32 32 28 30 39
52 53 55 53 52 50 46 46 42 44 42 39 39 37 38 43 40 42 42 41 43 36 35 36 35 35 35 33 31 31 30 30
56 55 55 53 55 56 53 51 51 56 54 45 42 40 40 41 42 46 42 42 44 44 39 41 40 39 37 35 34 33 31 33
51 51 53 53 50 52 58 57 54 50 51 49 47 42 44 42 43 47 41 41 42 45 45 45 46 41 40 38 37 37 38 34
43 49 52 48 46 47 45 53 57 52 45 47 48 45 47 47 45 45 46 46 45 47 47 47 47 48 43 41 39 39 41 39
36 45 53 57 58 50 52 55 47 47 45 44 44 48 47 41 45 46 43 48 51 52 52 52 52 49 48 45 41 40 42 40
51 52 51 56 63 62 59 58 57 53 44 36 35 36 40 51 61 63 57 59 61 56 55 54 53 55 49 45 45 50 46 44
67 67 65 62 59 64 68 66 54 52 42 38 34 28 42 58 61 58 58 61 61 61 60 58 56 56 50 49 48 49 49 49
78 76 73 67 63 61 64 68 67 63 46 41 19 40 54 44 44 51 57 57 59 58 61 60 55 53 52 52 52 52 50 49
85 86 84 75 66 68 62 66 69 65 64 56 58 46 61 51 50 50 55 57 53 53 59 55 52 50 45 51 52 53 50 49
92 95 92 82 71 72 68 66 68 70 70 73 70 63 65 72 72 70 55 48 54 58 53 49 46 51 51 58 62 59 57 53
96 97 97 95 84 77 76 67 70 74 72 80 83 81 78 69 66 66 66 67 67 53 56 43 46 46 46 57 64 62 65 59
99 101 102 106 96 89 79 75 77 77 80 79 89 93 90 90 83 77 65 64 69 59 67 51 51 47 49 50 59 60 72 65
98 101 103 104 98 97 88 82 79 81 80 86 86 94 96 95 92 91 87 79 56 73 75 66 52 53 40 53 62 70 76 69
93 98 98 99 94 93 93 88 86 82 82 84 90 92 94 96 95 94 93 91 90 83 72 75 75 62 56 61 53 66 76 73
72 79 83 87 89 87 90 91 90 88 84 82 84 92 94 94 95 93 92 91 90 90 87 81 79 79 71 74 69 83 74 71
71 69 74 81 84 85 87 89 90 89 88 85 83 87 92 95 94 94 95 93 92 91 90 83 84 82 81 84 82 84 84 73
64 68 73 75 80 83 85 88 89 89 89 89 89 88 88 91 91 91 95 94 92 91 89 86 86 84 84 86 82 76 76 67

GFSFLT2_250_spd_126.txt.gz
Wind_Speed
42 44 44 46 46 47 44 42 42 44 46 47 46 43 40 41 38 36 33 31 31 30 31 30 31 28 28 33 32 33 31 26
44 45 47 49 47 48 48 48 43 46 45 48 48 48 46 45 42 37 36 31 30 28 31 32 34 34 30 35 33 35 34 33
51 51 51 47 49 50 50 47 46 47 49 50 52 51 49 47 47 42 41 40 39 31 26 30 34 38 32 37 38 34 38 34
55 57 54 52 50 47 48 48 47 48 50 54 51 52 51 51 47 47 48 47 41 30 32 33 28 34 36 38 43 37 38 33
59 61 61 56 50 47 45 47 48 51 54 53 51 51 50 52 49 49 52 48 43 37 35 34 31 26 32 40 44 42 43 35
66 63 58 60 59 50 44 43 44 47 50 52 50 50 54 53 55 54 54 49 47 47 42 36 35 26 28 29 34 40 45 40
64 61 61 63 60 54 48 45 44 40 44 45 40 40 41 50 50 47 48 50 49 44 39 40 33 27 27 24 26 30 34 37
66 68 66 63 59 58 55 48 45 44 42 41 32 28 38 44 42 46 45 46 45 43 41 42 39 32 29 24 28 33 32 30
68 68 68 66 65 64 62 58 54 51 44 40 43 43 39 43 29 38 44 43 49 49 48 46 41 34 24 29 26 25 33 27
70 68 70 71 71 69 69 69 66 62 57 55 54 53 50 50 56 43 53 59 50 54 45 40 37 32 37 31 32 19 22 30
74 77 79 80 78 77 76 77 77 72 68 63 60 62 54 60 49 44 53 49 60 52 43 38 43 38 39 29 38 28 21 28
82 82 84 86 87 87 87 85 83 83 79 73 68 68 70 62 59 65 63 69 64 52 50 40 33 37 38 29 42 41 29 32
92 93 92 93 95 94 96 95 92 92 89 84 74 71 76 78 74 75 70 72 63 59 54 57 44 44 41 37 38 39 41 41
99 100 100 101 102 102 102 101 99 98 99 97 93 85 80 82 80 85 83 75 68 58 50 53 58 53 46 41 37 40 39 40
104 104 104 104 105 105 108 110 108 107 105 103 98 94 91 88 83 86 82 89 77 67 58 55 56 57 48 53 51 45 48 43
108 105 101 102 104 104 107 106 106 110 108 106 98 96 95 95 92 92 87 86 90 81 72 67 60 58 54 49 47 49 53 45
107 106 102 98 98 99 100 100 101 101 101 101 102 98 97 100 99 95 92 94 90 92 85 72 69 67 59 65 54 49 52 46
101 96 89 83 82 81 80 83 84 86 89 92 96 100 97 98 98 97 95 92 99 92 94 86 84 78 76 74 74 60 58 62
87 81 76 72 69 68 67 66 70 74 78 85 87 91 95 95 96 98 96 94 100 99 97 100 100 94 92 88 84 78 73 70
72 69 66 62 57 57 58 59 62 66 70 76 83 86 89 91 95 98 99 94 98 104 99 106 110 109 107 98 95 94 90 81

GFSFLT2_250_spd_129.txt.gz
Wind_Speed
36 36 37 39 41 42 42 44 43 45 45 44 44 44 43 44 47 45 43 41 37 32 29 30 30 28 31 35 31 29 30 28
45 41 40 43 43 47 48 48 49 47 47 47 45 46 46 45 46 48 45 46 42 36 31 34 29 27 30 37 33 31 33 33
49 45 45 47 49 52 52 53 54 51 52 51 48 44 46 47 49 48 47 47 42 41 34 36 35 30 31 30 30 33 33 33
52 50 51 53 52 51 54 56 55 53 53 47 44 43 48 52 51 47 47 47 41 42 38 37 36 31 32 31 29 29 33 32
55 57 56 55 56 57 58 54 51 49 50 47 42 45 46 48 47 45 46 49 47 43 43 39 41 40 36 29 29 24 28 31
57 60 60 59 61 61 61 58 56 54 52 47 43 41 44 42 45 49 46 47 49 49 48 47 42 42 44 34 27 25 16 23
62 65 67 66 67 64 62 60 58 60 54 51 47 45 42 36 36 38 40 40 44 39 38 42 44 43 42 39 26 26 21 22
66 70 70 67 67 66 66 67 64 61 57 50 51 51 49 40 34 37 40 35 32 35 34 34 42 40 43 43 37 31 24 20
73 76 76 73 72 72 71 68 68 67 60 58 57 54 51 45 44 43 41 30 24 26 36 37 40 44 48 44 44 35 27 25
76 77 77 73 74 75 76 73 72 68 68 67 64 60 55 51 52 49 45 41 34 32 40 41 45 54 51 51 48 44 32 30
77 78 78 77 77 78 79 78 77 78 78 76 73 72 68 58 61 61 53 54 44 41 44 45 43 61 60 50 51 48 46 40
79 81 83 83 83 83 83 84 83 83 84 85 83 80 79 76 63 69 70 64 58 63 57 45 28 66 58 46 51 50 48 48
84 85 86 86 87 86 86 88 90 90 91 92 91 88 85 84 81 70 75 79 68 66 67 63 59 66 66 56 47 53 51 51
84 86 88 91 93 95 96 96 97 99 98 97 97 97 94 89 85 78 75 82 82 76 76 73 67 74 63 57 50 53 54 54
97 98 101 103 104 104 106 107 107 106 106 105 102 99 99 98 93 85 80 80 90 85 84 84 80 80 71 61 59 62 60 60
103 106 109 110 111 112 113 112 110 108 107 106 106 103 102 100 96 91 89 84 92 92 92 91 88 82 81 68 61 67 70 68
109 110 113 114 114 107 104 103 103 105 103 102 101 102 102 103 103 99 97 97 96 97 98 99 95 95 91 83 71 66 72 67
110 109 110 108 104 101 98 94 94 90 92 92 95 94 99 101 103 101 100 101 101 102 104 103 103 98 93 93 82 75 70 70
106 99 95 91 90 86 80 78 77 74 72 75 78 81 84 85 89 89 95 100 100 105 105 106 105 104 102 97 90 85 76 78
91 82 79 77 78 71 66 63 56 57 56 59 63 68 72 77 79 80 83 89 95 100 105 107 108 104 102 104 97 98 91 82

GFSFLT2_250_spd_132.txt.gz
Wind_Speed
48 48 44 43 42 41 41 41 41 42 40 41 43 44 47 46 45 45 46 48 48 46 43 38 34 30 29 33 30 29 32 29
52 51 49 49 45 46 48 45 45 46 44 43 47 48 47 48 47 46 48 50 48 45 44 42 39 34 32 34 29 28 28 28
53 52 51 51 51 50 48 50 47 46 49 48 49 48 49 51 51 49 46 52 51 48 45 41 39 37 34 33 34 33 30 29
55 55 54 55 55 52 51 52 55 54 53 50 52 49 48 48 48 49 47 46 46 42 40 38 41 40 37 36 33 34 29 31
58 58 58 58 56 54 55 56 56 54 54 54 55 51 48 46 45 50 50 45 39 45 48 45 40 40 41 39 36 38 33 31
61 61 61 61 60 59 59 55 56 59 60 58 53 53 54 49 47 43 42 42 43 44 43 43 42 44 43 44 40 41 39 33
63 65 66 64 65 64 64 65 66 63 61 61 54 54 57 51 48 48 44 38 41 41 42 40 42 41 43 47 47 44 43 36
65 68 68 67 68 68 70 71 73 73 68 65 63 63 60 57 53 49 50 43 44 43 40 37 33 37 32 35 41 43 44 40
67 68 73 70 73 74 77 79 79 80 77 73 72 66 62 59 55 54 52 48 48 49 48 41 38 38 32 32 39 43 45 44
69 70 73 76 76 79 80 81 83 82 81 78 74 70 64 59 58 58 55 54 54 49 57 48 38 34 39 44 41 43 45 50
74 76 77 78 82 82 84 86 87 86 84 82 80 75 72 66 62 60 58 55 56 62 62 49 44 53 47 45 47 53 53 48
80 82 83 85 85 88 89 90 88 89 89 89 86 84 80 77 72 69 64 61 60 61 68 62 55 54 55 52 51 51 55 63
81 84 86 86 89 93 95 96 96 94 93 93 93 91 88 85 81 78 75 72 68 70 74 64 62 65 61 61 54 41 40 64
84 86 88 90 92 95 98 99 98 96 95 95 95 95 93 90 90 90 87 84 81 77 81 79 79 76 73 67 62 56 68 63
86 88 89 91 93 96 97 98 101 101 104 104 105 106 106 104 100 99 98 96 93 89 84 85 84 91 86 79 77 73 74 62
89 91 93 96 99 102 105 107 109 109 111 113 114 113 112 112 108 106 107 107 103 97 91 88 90 90 102 92 85 81 77 76
94 96 98 100 104 107 110 110 110 111 113 116 116 116 116 115 111 110 106 105 104 101 97 92 92 94 98 106 95 90 84 79
96 100 103 107 108 108 107 106 106 107 106 107 108 108 104 104 103 103 101 103 100 100 97 97 96 99 99 103 106 98 93 87
103 105 106 106 104 101 97 94 96 94 91 88 87 86 84 84 86 89 94 95 100 101 99 99 100 99 105 103 108 106 101 95
108 107 104 98 93 89 86 83 80 78 76 72 69 69 69 71 71 74 79 84 90 92 93 97 101 102 104 109 108 109 107 100

GFSFLT2_250_spd_135.txt.gz
Wind_Speed
46 49 49 50 49 50 49 48 46 44 46 46 44 43 42 44 43 42 41 44 47 46 46 47 48 47 43 38 33 32 32 31
47 48 51 52 51 52 53 53 52 51 48 51 49 48 47 49 48 50 47 46 45 48 47 46 48 45 45 43 39 35 34 30
51 53 54 54 54 53 54 55 55 54 52 51 52 48 49 47 47 50 47 51 50 46 48 48 43 45 42 40 42 39 35 33
55 55 56 57 57 56 57 57 56 57 56 53 51 52 53 53 51 50 50 47 45 47 46 46 36 31 32 37 41 41 40 33
60 60 61 61 60 60 60 59 59 57 55 51 53 56 58 51 48 48 49 47 46 44 43 48 40 40 41 42 38 39 44 36
65 65 64 64 64 62 63 63 60 58 56 54 54 53 54 56 53 50 50 46 44 45 42 41 44 46 43 40 40 41 44 43
66 68 68 68 67 67 67 66 62 60 59 59 58 60 62 62 58 52 49 49 48 44 45 45 44 42 43 43 46 43 42 44
68 70 71 70 70 69 68 67 67 67 67 65 63 63 66 68 69 66 61 56 51 44 38 41 47 48 46 44 47 47 41 38
68 70 71 71 71 71 72 74 74 73 71 72 71 70 74 76 68 66 65 62 52 42 41 42 52 57 54 55 47 50 40 38
68 70 71 73 74 74 73 73 76 78 78 79 78 78 78 76 71 66 62 62 56 53 56 45 64 54 56 57 48 44 41 42
70 71 74 76 77 77 79 80 82 83 84 85 83 84 85 85 81 74 65 62 59 63 66 69 62 59 59 62 58 55 52 52
73 74 77 79 82 81 80 80 79 83 84 87 88 90 89 90 88 82 73 67 67 66 69 73 73 69 67 71 61 65 60 53
74 77 78 80 82 85 87 87 88 87 86 91 92 93 94 96 97 96 85 74 72 75 75 75 73 73 75 73 71 64 64 55
71 78 83 86 88 89 90 91 90 89 90 91 93 98 101 102 102 100 100 96 82 77 79 80 78 79 76 75 72 79 75 66
72 74 76 79 81 84 86 88 90 92 94 95 97 98 99 101 102 101 101 101 100 93 86 83 83 84 83 78 77 81 82 72
81 83 84 86 88 90 92 95 97 99 101 102 105 106 108 108 109 109 109 107 105 105 103 96 91 90 91 89 85 89 93 85
85 86 90 93 93 93 94 94 97 99 102 103 103 106 110 112 112 111 110 109 107 105 105 106 103 99 100 96 89 96 93 94
90 92 93 94 95 97 99 101 102 105 109 112 112 113 109 106 105 104 103 104 104 104 102 99 100 100 101 99 97 103 102 104
95 98 99 99 99 99 102 106 109 111 111 107 103 99 95 93 92 95 97 97 97 97 96 97 97 97 100 103 101 106 112 106
105 105 103 103 101 102 102 104 103 100 93 89 88 86 85 84 85 85 85 85 83 82 81 84 86 90 93 96 97 99 112 112